Weather History for South Bend, IN

Change the Weather History Date:

Wednesday, December 11, 2013

  Actual Average Record
Temperature  
Mean Temperature 19 °F 30 °F  
Max Temperature 24 °F 36 °F 64 °F (1949)
Min Temperature 13 °F 24 °F -7 °F (1917)
Degree Days  
Heating Degree Days 46 35  
Month to date heating degree days 394 366  
Since 1 July heating degree days 1683 1635  
Cooling Degree Days 0 0  
Month to date cooling degree days 0 0  
Year to date cooling degree days 828 773  
Moisture  
Dew Point 11 °F    
Average Humidity 72    
Maximum Humidity 84    
Minimum Humidity 59    
Precipitation  
Precipitation 0.18 in 0.09 in 1.05 in (2007)
Month to date precipitation 0.33 1.00  
Year to date precipitation 38.35 36.39  
Snow  
Snow 1.60 in 0.50 in 8.30 in (2000)
Month to date snowfall 1.9 4.9  
Since 1 July snowfall 11.1 10.1  
Snow Depth T in    
Sea Level Pressure  
Sea Level Pressure 30.37 in    
Wind  
Wind Speed 11 mph (WNW)    
Max Wind Speed 21 mph    
Max Gust Speed 25 mph    
Visibility 4 miles    
Events Snow    
T = Trace of Precipitation, MM = Missing Value Source: NWS Daily Summary

Daily Weather History Graph

Daily Weather History Graph

Search for Another Location

Airport:

Trip Planner

Search our weather history database for the weather conditions in past years. The results will help you decide how hot, cold, wet, or windy it might be!

Date:

Astronomy

Dec. 11, 2013 Rise Set
Actual Time 8:02 AM EST 5:14 PM EST
Civil Twilight 7:31 AM EST 5:46 PM EST
Nautical Twilight 6:56 AM EST 6:21 PM EST
Astronomical Twilight 6:22 AM EST 6:54 PM EST
Moon 1:51 PM EST (12/11) 2:19 AM EST (12/11)
Length of Visible Light 10h 15m
Length of Day
9h 12m
Waxing Gibbous, 71% of the Moon is Illuminated
Dec 11
Waxing Gibbous
Dec 17
Full
Dec 25
Last Quarter
Jan 1
New
Jan 7
First Quarter

Hourly Weather History & Observations

Time (EST) Temp. Windchill Dew Point Humidity Pressure Visibility Wind Dir Wind Speed Gust Speed Precip Events Conditions
12:54 AM 17.1 °F 5.0 °F 6.1 °F 62% 30.32 in 10.0 mi WSW 10.4 mph - N/A   Overcast
1:54 AM 18.0 °F 7.7 °F 6.1 °F 60% 30.31 in 10.0 mi SW 8.1 mph - N/A   Overcast
2:54 AM 18.0 °F 6.9 °F 7.0 °F 62% 30.31 in 10.0 mi WSW 9.2 mph - N/A   Overcast
3:54 AM 17.1 °F 5.0 °F 10.9 °F 77% 30.31 in 4.0 mi SW 10.4 mph - 0.01 in Snow Light Snow
4:54 AM 16.0 °F 5.3 °F 10.9 °F 81% 30.30 in 5.0 mi WSW 8.1 mph - 0.00 in   Haze
5:31 AM 17.6 °F 9.3 °F 12.2 °F 79% 30.26 in 2.5 mi WSW 5.8 mph - 0.00 in Snow Light Snow
5:54 AM 17.1 °F 7.6 °F 12.0 °F 81% 30.30 in 2.5 mi SW 6.9 mph - 0.00 in Snow Light Snow
6:54 AM 17.1 °F 5.8 °F 12.9 °F 84% 30.31 in 1.0 mi SW 9.2 mph - 0.02 in Snow Light Snow
7:54 AM 17.1 °F 4.3 °F 12.0 °F 81% 30.34 in 1.0 mi SW 11.5 mph - 0.02 in Snow Light Snow
8:54 AM 18.0 °F 6.1 °F 12.9 °F 81% 30.35 in 1.0 mi WSW 10.4 mph - 0.02 in Snow Light Snow
9:54 AM 19.0 °F 7.5 °F 14.0 °F 81% 30.37 in 1.0 mi WSW 10.4 mph - 0.01 in Snow Light Snow
10:54 AM 19.9 °F 8.6 °F 15.1 °F 81% 30.38 in 2.0 mi WSW 10.4 mph - 0.01 in Snow Light Snow
11:13 AM 21.2 °F 10.9 °F 15.8 °F 80% 30.32 in 3.0 mi WSW 9.2 mph - 0.00 in Snow Light Snow
11:25 AM 21.2 °F 10.9 °F 15.8 °F 80% 30.32 in 1.0 mi West 9.2 mph - 0.00 in Snow Light Snow
11:54 AM 21.9 °F 11.0 °F 18.0 °F 85% 30.36 in 0.8 mi West 10.4 mph - 0.00 in Snow Light Snow
12:01 PM 23.0 °F 13.1 °F 17.6 °F 80% 30.31 in 0.8 mi West 9.2 mph - 0.00 in Snow Light Snow
12:48 PM 24.8 °F 12.9 °F 17.6 °F 74% 30.31 in 1.0 mi NW 13.8 mph - 0.01 in Snow Light Snow
12:54 PM 23.0 °F 10.6 °F 18.0 °F 81% 30.35 in 0.5 mi NW 13.8 mph - 0.01 in Snow Light Snow
12:58 PM 23.0 °F 10.1 °F 17.6 °F 80% 30.31 in 0.8 mi NW 15.0 mph - 0.00 in Snow Light Snow
1:01 PM 23.0 °F 8.7 °F 15.8 °F 74% 30.31 in 1.0 mi NW 18.4 mph - 0.00 in Snow Light Snow
1:54 PM 21.9 °F 9.8 °F 16.0 °F 78% 30.36 in 1.0 mi NW 12.7 mph - 0.00 in Snow Light Snow
2:19 PM 21.2 °F 8.3 °F 15.8 °F 80% 30.32 in 2.5 mi WNW 13.8 mph - 0.00 in   Haze
2:22 PM 21.2 °F 9.5 °F 15.8 °F 80% 30.32 in 2.5 mi WNW 11.5 mph - 0.00 in Snow Light Snow
2:40 PM 21.2 °F 7.3 °F 15.8 °F 80% 30.33 in 1.5 mi NW 16.1 mph 24.2 mph 0.00 in Snow Light Snow
2:49 PM 21.2 °F 7.3 °F 14.0 °F 74% 30.33 in 2.5 mi NW 16.1 mph - 0.00 in Snow Light Snow
2:54 PM 21.9 °F 6.9 °F 12.0 °F 66% 30.38 in 2.0 mi NW 19.6 mph 24.2 mph 0.00 in Snow Light Snow
3:01 PM 21.2 °F 7.8 °F 12.2 °F 68% 30.34 in 2.0 mi WNW 15.0 mph - 0.01 in Snow Light Snow
3:13 PM 21.2 °F 7.3 °F 10.4 °F 63% 30.34 in 2.0 mi NW 16.1 mph - 0.01 in   Haze
3:17 PM 21.2 °F 5.6 °F 12.2 °F 68% 30.34 in 2.0 mi NW 20.7 mph 25.3 mph 0.01 in Snow Light Snow
3:24 PM 21.2 °F 6.0 °F 12.2 °F 68% 30.35 in 1.0 mi NW 19.6 mph 25.3 mph 0.01 in Snow Light Snow
3:54 PM 19.0 °F 4.5 °F 12.0 °F 74% 30.41 in 1.0 mi NW 16.1 mph 21.9 mph 0.01 in Snow Light Snow
4:22 PM 19.4 °F 5.0 °F 8.6 °F 63% 30.37 in 10.0 mi NW 16.1 mph 21.9 mph 0.00 in   Overcast
4:54 PM 18.0 °F 4.8 °F 8.1 °F 65% 30.44 in 8.0 mi NW 12.7 mph - 0.00 in   Overcast
5:06 PM 17.6 °F 3.7 °F 8.6 °F 68% 30.40 in 4.0 mi NW 13.8 mph 25.3 mph 0.00 in Snow Light Snow
5:27 PM 17.6 °F 3.7 °F 6.8 °F 63% 30.41 in 4.0 mi NW 13.8 mph - 0.00 in   Haze
5:54 PM 16.0 °F 3.6 °F 5.0 °F 62% 30.46 in 4.0 mi NW 10.4 mph - 0.00 in   Haze
6:54 PM 16.0 °F 3.6 °F 5.0 °F 62% 30.48 in 9.0 mi NNW 10.4 mph - N/A   Overcast
7:54 PM 16.0 °F 2.3 °F 5.0 °F 62% 30.50 in 10.0 mi NW 12.7 mph - N/A   Overcast
8:54 PM 16.0 °F 2.3 °F 5.0 °F 62% 30.51 in 10.0 mi WNW 12.7 mph 19.6 mph N/A   Overcast
9:54 PM 15.1 °F 4.2 °F 3.0 °F 59% 30.52 in 8.0 mi NW 8.1 mph - N/A   Overcast
10:04 PM 15.8 °F 5.1 °F 3.2 °F 58% 30.47 in 8.0 mi NW 8.1 mph - N/A   Overcast
10:54 PM 14.0 °F 2.9 °F 3.9 °F 64% 30.50 in 10.0 mi NW 8.1 mph - N/A   Overcast
11:54 PM 12.9 °F 2.6 °F 3.0 °F 65% 30.51 in 10.0 mi West 6.9 mph - N/A   Overcast